Location: Four Corners
(38.2757°N, 122.4608°W)
Time: 12:45:15
(UTC+00:00)

ALOS - Pass Details

Date: 08 December 2019
Orbit: 684 x 685 km, 97.8° (Epoch: 19 January)

Event Time Altitude Azimuth Distance (km) Brightness Sun altitude
Rises 01:17:55 0° 187° (S) 3,034 6.1 -5.9°
Reaches altitude 10° 01:20:18 10° 195° (SSW) 2,123 5.4 -6.3°
Maximum altitude 01:24:35 36° 263° (W) 1,073 4.1 -7.1°
Drops below altitude 10° 01:28:54 10° 330° (NNW) 2,137 4.9 -7.8°
Sets 01:31:19 0° 339° (NNW) 3,058 5.6 -8.3°
